Location: Allen Lane School
(37.8198°N, 89.7382°W)
Time: 14:18:44
(UTC+00:00)

Cosmos 44 - Pass Details

Date: 05 July 2022
Orbit: 595 x 766 km, 65.1° (Epoch: 07 August)

Event Time Altitude Azimuth Distance (km) Brightness Sun altitude
Exits shadow 07:17:35 18° 298° (WNW) 1,572 5.2 -27.0°
Maximum altitude 07:18:22 19° 312° (NW) 1,532 5.3 -26.9°
Drops below altitude 10° 07:21:33 10° 357° (N) 1,993 6.5 -26.7°
Sets 07:24:23 0° 16° (NNE) 2,878 7.8 -26.5°
